Fairbanks, AK

11:15 AM AKST on November 17, 2017 (GMT -0900)
Fairbanks International

Weather History for PAFA - September, 2012

Change the Weather History Date:

Wednesday, September 5, 2012

  Actual Average Record
Temperature  
Mean Temperature 53 °F 50 °F  
Max Temperature 64 °F 60 °F 84 °F (1957)
Min Temperature 42 °F 40 °F 22 °F (1921)
Degree Days  
Heating Degree Days 12 15  
Month to date heating degree days 58 72  
Since 1 July heating degree days 456 461  
Cooling Degree Days 0 0  
Month to date cooling degree days 0 0  
Year to date cooling degree days 34 61  
Growing Degree Days 3 (Base 50)    
Moisture  
Dew Point 38 °F    
Average Humidity 58    
Maximum Humidity 86    
Minimum Humidity 22    
Precipitation  
Precipitation 0.03 in 0.04 in 0.86 in (1965)
Month to date precipitation 0.08 0.23  
Year to date precipitation 7.29 7.80  
Snow  
Snow 0.00 in 0.00 in 0.20 in (1980)
Month to date snowfall 0.0 0.1  
Since 1 July snowfall 0.0 0.1  
Since 1 September snowfall 0.0 0.1  
Snow Depth 0.00 in    
Sea Level Pressure  
Sea Level Pressure 29.49 in    
Wind  
Wind Speed 4 mph (ENE)    
Max Wind Speed 14 mph    
Max Gust Speed 24 mph    
Visibility 10 miles    
Events Rain    
T = Trace of Precipitation, MM = Missing Value Source: NWS Daily Summary

Daily Weather History Graph

Daily Weather History Graph

Search for Another Location

Airport or City:

Trip Planner

Search our weather history database for the weather conditions in past years. The results will help you decide how hot, cold, wet, or windy it might be!

Date:

Astronomy

Sep. 05, 2012 Rise Set
Actual Time 6:45 AM AKDT 8:52 PM AKDT
Civil Twilight 5:52 AM AKDT 9:44 PM AKDT
Nautical Twilight 4:40 AM AKDT 10:55 PM AKDT
Astronomical Twilight 2:40 AM AKDT 12:46 AM AKDT
Moon 8:56 PM AKDT (9/5) 2:26 PM AKDT (9/5)
Length of Visible Light 15h 52m
Length of Day
14h 06m
Waning Gibbous, 75% of the Moon is Illuminated
Sep 5
Waning Gibbous
Sep 8
Last Quarter
Sep 15
New
Sep 22
First Quarter
Sep 29
Full

Hourly Weather History & Observations

Time (AKDT) Temp. Dew Point Humidity Pressure Visibility Wind Dir Wind Speed Gust Speed Precip Events Conditions
12:53 AM 50.0 °F 41.0 °F 71% 29.50 in 10.0 mi NE 3.5 mph - N/A   Overcast
1:53 AM 48.0 °F 39.0 °F 71% 29.50 in 10.0 mi NNE 3.5 mph - N/A   Mostly Cloudy
2:53 AM 48.0 °F 39.0 °F 71% 29.47 in 10.0 mi North 6.9 mph - N/A   Mostly Cloudy
3:53 AM 48.9 °F 37.0 °F 64% 29.46 in 10.0 mi NNE 5.8 mph - N/A   Mostly Cloudy
4:53 AM 48.9 °F 36.0 °F 61% 29.47 in 10.0 mi NNE 3.5 mph - N/A   Mostly Cloudy
5:53 AM 45.0 °F 37.0 °F 74% 29.46 in 10.0 mi Calm Calm - N/A   Mostly Cloudy
6:53 AM 43.0 °F 36.0 °F 76% 29.46 in 10.0 mi Calm Calm - N/A   Mostly Cloudy
7:53 AM 46.0 °F 39.0 °F 76% 29.47 in 10.0 mi Calm Calm - N/A   Mostly Cloudy
8:53 AM 46.9 °F 39.9 °F 77% 29.47 in 10.0 mi NNE 3.5 mph - N/A   Mostly Cloudy
9:53 AM 50.0 °F 39.0 °F 66% 29.47 in 10.0 mi Calm Calm - N/A   Mostly Cloudy
10:53 AM 51.1 °F 39.0 °F 63% 29.47 in 10.0 mi Calm Calm - N/A   Mostly Cloudy
11:53 AM 54.0 °F 39.0 °F 57% 29.48 in 10.0 mi Calm Calm - N/A   Mostly Cloudy
12:53 PM 55.9 °F 39.0 °F 53% 29.48 in 10.0 mi NNE 3.5 mph - N/A   Mostly Cloudy
1:53 PM 57.9 °F 39.0 °F 49% 29.48 in 10.0 mi East 3.5 mph - N/A   Mostly Cloudy
2:53 PM 59.0 °F 37.9 °F 46% 29.48 in 10.0 mi ESE 3.5 mph - N/A   Mostly Cloudy
3:53 PM 63.0 °F 34.0 °F 34% 29.47 in 10.0 mi SE 8.1 mph - N/A   Mostly Cloudy
4:53 PM 61.0 °F 35.1 °F 38% 29.47 in 10.0 mi South 6.9 mph - N/A   Mostly Cloudy
5:53 PM 62.1 °F 33.1 °F 34% 29.47 in 10.0 mi SSW 8.1 mph 19.6 mph N/A   Mostly Cloudy
6:53 PM 61.0 °F 32.0 °F 34% 29.48 in 10.0 mi SSW 8.1 mph 24.2 mph N/A   Mostly Cloudy
7:53 PM 59.0 °F 33.1 °F 38% 29.50 in 10.0 mi SW 5.8 mph - N/A   Mostly Cloudy
8:53 PM 57.0 °F 33.1 °F 40% 29.52 in 10.0 mi SSW 10.4 mph 21.9 mph N/A   Mostly Cloudy
9:53 PM 52.0 °F 42.1 °F 69% 29.57 in 10.0 mi WSW 13.8 mph 20.7 mph 0.00 in Rain Light Rain
10:53 PM 50.0 °F 45.0 °F 83% 29.61 in 10.0 mi West 8.1 mph - 0.02 in Rain Light Rain
11:53 PM 48.0 °F 44.1 °F 86% 29.65 in 10.0 mi West 5.8 mph - 0.00 in Rain Light Rain